Location: Kershaw
(34.5481°N, 80.5823°W)
Time: 08:51:50
(UTC+00:00)

Explorer 7 - Pass Details

Date: 12 October 2022
Orbit: 481 x 665 km, 50.3° (Epoch: 28 November)

Event Time Altitude Azimuth Distance (km) Brightness Sun altitude
Rises 14:57:23 0° 300° (WNW) 2,993 10.1 37.7°
Reaches altitude 10° 15:01:15 10° 331° (NNW) 2,089 9.4 38.2°
Maximum altitude 15:03:10 12° 355° (N) 1,945 9.3 38.5°
Drops below altitude 10° 15:05:06 10° 18° (NNE) 2,085 9.6 38.8°
Sets 15:08:57 0° 49° (NE) 2,981 10.6 39.3°
